Location: East Horndon
(51.5667°N, 0.3500°E)
Time: 11:57:22
(UTC+00:00)

Meteor 2-21 - Pass Details

Date: 08 November 2025
Orbit: 933 x 966 km, 82.5° (Epoch: 09 December)

Event Time Altitude Azimuth Distance (km) Brightness Sun altitude
Rises 04:51:26 0° 194° (SSW) 3,609 7.3 -20.8°
Reaches altitude 10° 04:53:56 10° 196° (SSW) 2,663 6.6 -20.4°
Maximum altitude 05:00:01 75° 282° (WNW) 980 4.3 -19.5°
Drops below altitude 10° 05:06:06 10° 8° (N) 2,662 6.8 -18.5°
Sets 05:08:36 0° 10° (N) 3,607 7.6 -18.2°
